Location: Newark
(35.0317°N, 117.3481°W)
Time: 07:01:09
(UTC+00:00)

ISS - Visible Passes

Search period start: 07 December 2019 00:00
Search period end: 17 December 2019 00:00
Orbit: 411 x 421 km, 51.6° (Epoch: 07 December)

Date Brightness Start Highest point End Pass type
(mag) Time Alt. Az. Time Alt. Az. Time Alt. Az.
08 Dec -2.0 01:59:54 10° NNW 02:01:40 19° N 02:01:40 19° N visible
09 Dec -1.8 01:11:56 10° N 01:13:55 15° NNE 01:15:47 10° ENE visible
09 Dec -1.3 02:47:38 10° NW 02:48:44 19° NW 02:48:44 19° NW visible
10 Dec -3.8 01:59:10 10° NW 02:02:29 59° NE 02:03:09 47° E visible
11 Dec -3.0 01:10:50 10° NNW 01:13:55 32° NE 01:16:59 10° ESE visible
11 Dec -1.3 02:47:57 10° W 02:50:29 20° SW 02:51:02 19° SW visible
12 Dec -2.3 01:58:57 10° WNW 02:02:06 38° SW 02:05:14 10° SSE visible
13 Dec -3.6 01:10:17 10° NW 01:13:38 78° SW 01:16:58 10° SE visible
14 Dec -0.3 02:00:11 10° WSW 02:01:27 12° SW 02:02:44 10° SSW visible
15 Dec -0.8 01:10:25 10° WNW 01:13:05 22° SW 01:15:43 10° S visible
